Wind_Speed
13 14 14 15 15 15 16 17 17 18 18 18 19 19 19 19 19 19 18 18 19 19 19 20 20 20 20 20 21 22 22 23 23 24 25 26 27 27 28 30 30 30 30
13 14 14 15 15 15 16 17 18 18 19 19 18 19 19 19 19 19 19 19 18 18 18 19 20 19 20 20 20 20 22 23 23 24 26 26 27 27 28 30 31 31 31
13 13 14 13 14 15 16 17 17 18 19 19 19 19 19 19 18 19 18 18 17 17 18 18 19 19 19 19 20 20 21 21 22 24 25 26 26 27 28 29 31 32 33
13 13 14 13 13 15 16 16 16 17 19 19 20 19 18 19 18 18 18 18 17 18 18 18 19 18 19 19 19 21 22 22 22 23 24 24 25 27 28 29 30 32 33
13 13 14 14 14 15 16 17 17 18 19 19 20 19 19 19 19 19 18 18 18 19 18 18 18 18 20 20 21 21 21 21 22 23 24 25 25 26 27 28 28 30 31
14 14 14 14 15 16 17 18 19 20 20 20 20 19 19 19 20 20 19 19 19 18 18 18 18 19 20 20 20 21 21 21 21 22 24 25 25 26 27 27 28 28 29
14 14 14 15 16 17 18 19 20 20 21 21 20 19 19 20 20 20 19 18 18 18 19 19 20 20 20 20 20 20 20 20 21 21 22 23 25 25 26 27 27 28 28
15 15 15 15 16 17 18 19 20 20 20 20 19 19 19 20 20 20 19 18 18 19 19 19 19 20 19 19 19 19 19 19 20 21 21 22 23 24 24 25 26 28 28
15 15 15 15 16 18 18 19 19 19 19 19 19 18 19 19 20 19 19 19 19 19 18 18 18 18 18 18 18 19 19 19 20 21 21 22 23 23 24 25 26 27 28
15 16 16 16 17 17 18 18 18 18 18 19 18 18 18 19 19 18 18 18 18 17 17 17 17 18 18 18 18 18 19 19 20 20 21 22 22 23 24 25 27 28 28
15 15 16 16 18 18 18 19 18 18 18 18 18 18 19 19 19 18 18 18 18 18 17 17 17 17 17 18 18 18 19 19 19 20 21 22 23 23 24 25 26 27 28
15 15 16 17 19 18 18 18 18 18 17 18 17 18 18 19 19 18 18 18 18 18 18 18 17 18 18 18 17 18 18 19 19 20 21 21 21 22 23 24 25 26 27
15 15 16 18 18 17 17 18 17 17 17 18 18 17 18 19 18 18 18 18 18 18 18 18 17 18 18 18 18 18 18 19 20 21 21 21 21 21 22 22 23 24 26
16 17 18 17 17 17 17 17 17 18 18 18 18 18 18 18 18 18 18 18 17 18 18 18 18 18 18 18 18 18 19 20 21 21 21 20 20 21 21 22 22 24 25
16 17 17 17 17 17 16 17 17 18 18 19 18 18 19 18 18 18 18 18 18 18 18 18 18 18 18 18 19 19 20 21 21 21 21 20 20 20 21 22 23 24 25
17 17 17 17 16 16 16 17 18 18 18 18 18 18 19 19 19 19 19 18 18 18 19 18 18 19 19 20 20 21 21 22 21 21 21 21 21 21 21 22 23 24 25
17 17 17 17 15 15 16 17 17 18 18 18 18 18 19 19 19 20 20 20 19 19 19 19 19 19 20 20 20 21 21 21 21 21 21 21 20 20 20 20 21 22 22
17 17 17 16 16 16 16 17 18 18 18 19 19 19 20 20 20 20 20 20 20 19 19 20 20 20 20 21 21 21 21 22 21 21 20 20 20 19 19 20 20 20 21
18 17 17 16 17 16 17 18 18 18 19 19 19 20 20 21 21 20 20 20 20 20 20 20 21 21 21 21 21 21 21 21 21 21 20 20 20 21 22 21 21 20 20
18 18 17 17 18 17 18 18 19 18 19 19 19 20 21 21 21 21 21 20 20 21 21 22 22 22 22 22 22 21 21 20 20 20 20 20 20 21 21 21 20 20 21
19 19 18 18 18 18 18 18 18 19 19 20 21 22 22 22 22 22 21 21 22 22 22 23 23 22 22 22 22 21 21 20 20 20 20 19 19 20 20 20 19 20 20
20 20 19 18 18 19 19 19 19 20 20 21 21 22 22 23 22 22 22 22 22 23 23 22 23 23 23 22 22 22 22 21 21 21 21 20 20 21 21 21 20 20 20
20 20 19 19 19 20 20 20 20 21 21 22 22 22 23 23 22 22 22 22 22 22 22 22 23 23 23 23 23 23 23 22 21 21 22 21 21 22 22 22 21 21 21
20 20 20 20 20 20 21 21 21 22 22 22 22 22 23 23 23 23 23 23 23 23 23 23 22 22 22 23 23 23 22 22 22 22 22 22 22 23 23 23 23 22 22
21 20 20 20 20 21 21 22 23 23 23 23 23 23 24 24 24 24 24 24 25 25 24 24 24 23 23 23 23 22 22 22 22 23 23 23 23 24 24 24 23 23 23
21 21 21 21 21 21 22 22 22 23 23 24 24 24 25 24 24 24 24 25 25 25 25 25 24 24 24 23 23 23 24 24 24 24 24 24 24 25 25 24 23 23 22
Wind_Direction
315 318 322 322 320 320 321 324 321 319 319 317 312 311 306 304 302 299 295 292 292 285 283 282 280 280 280 279 275 274 270 267 266 264 263 262 260 260 256 253 251 250 250
311 316 319 323 323 321 322 323 321 319 320 321 318 315 313 310 307 302 300 299 297 290 286 284 282 282 282 281 280 276 271 269 268 267 266 264 263 260 257 253 252 251 251
306 313 317 319 319 318 320 321 323 322 321 320 319 316 315 312 308 303 302 301 299 296 292 289 286 284 282 281 280 277 273 272 270 270 269 266 264 262 260 256 254 252 252
304 309 311 315 317 318 320 322 321 321 320 320 318 316 315 313 310 305 302 300 297 297 294 292 286 283 281 282 282 279 275 274 273 272 271 269 266 265 263 259 256 253 253
306 309 311 314 317 317 319 321 322 322 321 321 319 317 314 313 311 309 307 304 301 298 296 293 289 285 282 282 283 284 281 279 277 275 273 271 269 265 263 259 258 256 253
304 309 310 314 317 316 318 320 322 324 324 324 321 318 315 313 312 310 309 306 304 301 299 295 293 291 287 284 283 283 282 281 279 277 274 273 271 267 264 263 261 258 256
303 306 309 313 316 316 319 321 321 322 324 323 322 318 315 314 314 314 313 310 307 304 301 297 295 293 290 288 286 285 283 281 281 280 278 275 273 268 265 263 261 259 258
302 305 307 311 315 316 318 320 320 321 322 322 322 320 317 317 317 316 315 314 312 309 305 301 298 297 296 292 288 287 284 283 282 282 280 278 276 270 266 263 261 259 258
303 304 307 311 314 316 318 319 322 322 322 324 323 322 320 320 319 318 317 316 315 313 310 307 302 301 299 295 292 289 287 287 284 283 282 280 277 272 268 265 263 261 259
305 306 310 314 316 317 319 319 321 322 322 323 325 325 323 323 323 321 320 321 321 320 317 313 309 305 303 301 297 294 291 290 288 286 284 283 280 276 272 268 265 263 261
308 311 312 315 316 316 319 321 320 320 323 326 329 328 326 325 324 324 322 322 323 321 318 315 313 312 309 306 302 299 296 294 292 291 288 286 284 279 275 271 268 265 262
309 313 313 316 318 318 318 320 321 323 325 324 326 327 328 330 329 327 326 325 325 323 320 316 313 314 313 309 306 303 300 297 296 295 296 292 287 283 279 275 271 267 264
310 314 316 320 320 319 318 321 324 323 324 325 328 328 330 331 330 328 327 326 325 324 322 318 315 314 314 312 309 308 306 303 301 299 298 295 289 285 282 278 274 270 267
308 312 316 319 322 322 320 323 323 323 324 325 327 328 329 330 330 328 327 325 324 324 322 320 317 314 314 315 314 313 310 309 307 303 299 295 291 288 284 280 276 272 270
305 309 315 318 321 322 322 322 325 324 324 324 327 329 329 329 328 328 327 325 323 321 320 319 317 315 315 315 313 312 311 309 307 304 300 296 294 291 285 281 279 275 273
302 307 313 316 318 320 321 323 323 321 322 325 326 327 328 329 329 328 327 325 323 321 319 319 319 317 315 313 312 311 311 309 307 304 302 297 295 294 290 287 283 279 276
297 303 311 316 318 320 320 324 324 323 324 324 324 324 325 326 327 327 325 324 323 322 321 322 322 320 316 313 311 312 313 312 310 306 304 300 296 294 293 291 289 285 281
299 305 311 313 317 319 319 322 322 322 323 323 323 324 323 323 323 323 322 322 320 320 319 321 322 321 319 318 317 315 313 312 310 307 305 303 300 298 296 293 291 288 285
298 301 304 305 311 314 316 318 318 319 320 321 321 321 321 321 321 320 320 320 319 319 318 319 319 319 319 318 318 317 316 314 311 308 306 302 300 299 299 296 294 292 289
296 299 301 303 307 309 313 315 313 314 315 317 318 319 318 319 318 317 317 318 318 318 317 317 318 317 316 315 315 316 316 315 313 311 308 306 304 303 301 300 298 295 293
291 293 296 298 302 305 308 310 312 313 315 316 317 317 318 318 316 316 317 317 317 316 315 315 316 315 315 315 314 314 313 313 312 312 311 308 307 305 304 302 299 296 294
287 290 292 294 298 301 305 307 309 311 312 313 314 315 316 315 314 315 315 315 314 314 314 314 314 314 314 314 313 313 312 311 311 311 310 308 307 306 305 304 300 296 294
283 286 288 291 295 299 303 306 309 312 313 313 314 314 314 313 311 311 312 312 312 312 312 312 312 312 312 312 313 313 312 310 309 309 309 308 307 306 305 304 302 298 295
279 282 285 289 293 298 300 303 305 307 311 313 312 314 314 314 312 312 311 310 311 311 309 310 310 310 308 309 310 312 312 312 311 311 310 309 309 309 308 306 303 300 298
279 282 283 287 291 296 298 300 303 306 307 309 309 310 311 311 311 312 311 310 309 310 309 309 310 309 308 308 310 311 311 311 311 311 310 310 310 309 309 307 304 301 300
279 281 284 287 290 294 297 299 301 304 307 308 309 309 309 309 310 310 309 309 309 309 308 308 308 308 307 308 310 309 309 309 309 310 310 309 309 310 310 309 306 304 302
Height
5836 5834 5832 5830 5828 5827 5825 5823 5821 5818 5816 5814 5811 5809 5806 5804 5801 5799 5798 5796 5795 5794 5793 5792 5791 5791 5790 5789 5788 5788 5787 5787 5787 5788 5788 5789 5790 5791 5792 5794 5796 5798 5800
5834 5832 5830 5828 5826 5824 5822 5820 5818 5815 5813 5810 5807 5805 5802 5799 5797 5795 5794 5792 5791 5789 5788 5787 5786 5786 5785 5783 5783 5782 5782 5781 5781 5781 5781 5782 5783 5784 5785 5786 5788 5790 5792
5831 5830 5828 5826 5824 5822 5819 5817 5814 5812 5809 5806 5804 5801 5798 5796 5794 5791 5790 5788 5786 5785 5784 5783 5781 5780 5780 5779 5777 5776 5776 5775 5775 5774 5774 5775 5776 5776 5778 5779 5780 5782 5784
5829 5827 5826 5824 5822 5820 5817 5814 5812 5809 5806 5803 5800 5797 5795 5792 5790 5788 5786 5784 5782 5781 5779 5777 5776 5775 5774 5773 5772 5771 5770 5769 5768 5768 5768 5768 5768 5769 5770 5771 5772 5774 5775
5827 5825 5823 5821 5819 5817 5814 5811 5809 5806 5802 5799 5796 5793 5791 5789 5786 5784 5781 5780 5778 5776 5774 5773 5771 5770 5769 5767 5766 5765 5764 5763 5762 5761 5761 5761 5761 5761 5762 5764 5765 5766 5767
5824 5822 5820 5818 5816 5814 5811 5808 5805 5801 5798 5795 5792 5789 5787 5784 5782 5779 5777 5775 5773 5772 5770 5768 5766 5764 5763 5762 5761 5759 5758 5757 5756 5755 5755 5754 5754 5754 5755 5756 5757 5758 5760
5822 5820 5817 5815 5813 5810 5807 5804 5801 5798 5795 5791 5788 5786 5783 5781 5778 5776 5773 5771 5769 5767 5765 5763 5761 5759 5758 5756 5755 5754 5752 5751 5750 5750 5749 5748 5748 5748 5748 5748 5749 5751 5752
5818 5816 5814 5811 5809 5806 5804 5801 5798 5794 5791 5788 5784 5782 5779 5777 5774 5772 5769 5767 5764 5762 5760 5758 5756 5754 5752 5751 5749 5748 5747 5746 5745 5744 5743 5742 5741 5741 5741 5741 5742 5743 5744
5814 5812 5810 5808 5805 5802 5800 5797 5794 5791 5787 5784 5781 5778 5775 5773 5770 5768 5765 5763 5760 5758 5755 5753 5751 5750 5748 5746 5745 5743 5742 5741 5739 5738 5737 5736 5735 5734 5734 5734 5734 5736 5736
5811 5808 5806 5804 5801 5799 5796 5794 5791 5788 5784 5781 5777 5775 5772 5769 5767 5764 5761 5759 5756 5754 5752 5750 5748 5746 5744 5742 5740 5739 5737 5735 5734 5732 5731 5730 5729 5728 5727 5727 5726 5727 5728
5807 5805 5803 5801 5798 5796 5793 5790 5787 5784 5780 5777 5773 5771 5769 5766 5763 5761 5758 5756 5753 5751 5748 5746 5744 5742 5740 5738 5736 5734 5732 5730 5729 5727 5725 5724 5722 5721 5720 5719 5719 5719 5719
5804 5802 5800 5798 5795 5792 5790 5787 5783 5781 5777 5774 5771 5769 5766 5763 5761 5758 5755 5753 5750 5748 5745 5743 5740 5738 5736 5734 5732 5730 5728 5726 5724 5722 5719 5717 5715 5714 5712 5711 5711 5711 5711
5801 5799 5797 5794 5792 5789 5786 5783 5780 5778 5775 5772 5769 5766 5763 5760 5758 5755 5752 5750 5747 5745 5742 5740 5737 5735 5732 5730 5728 5725 5723 5721 5719 5716 5714 5712 5709 5708 5706 5704 5704 5703 5703
5798 5796 5793 5791 5788 5786 5783 5780 5778 5775 5772 5769 5766 5763 5760 5758 5755 5752 5750 5747 5744 5742 5739 5736 5734 5731 5729 5726 5724 5721 5719 5716 5714 5711 5708 5706 5704 5702 5700 5698 5697 5696 5696
5795 5793 5790 5788 5785 5783 5780 5777 5775 5772 5770 5767 5764 5761 5758 5755 5752 5749 5747 5744 5741 5739 5736 5733 5730 5727 5725 5722 5720 5717 5714 5712 5709 5706 5703 5700 5698 5695 5693 5691 5690 5689 5689
5791 5789 5787 5784 5782 5779 5777 5774 5772 5769 5767 5764 5761 5758 5755 5752 5749 5746 5743 5741 5738 5735 5733 5730 5727 5724 5721 5718 5715 5712 5709 5706 5703 5700 5697 5694 5692 5690 5687 5685 5683 5682 5681
5787 5786 5783 5781 5778 5776 5774 5771 5769 5766 5763 5761 5758 5755 5752 5749 5746 5743 5740 5738 5735 5732 5729 5726 5723 5720 5717 5714 5710 5707 5704 5701 5698 5694 5691 5689 5686 5684 5682 5679 5677 5675 5674
5783 5781 5779 5777 5775 5773 5771 5769 5766 5763 5761 5758 5755 5752 5749 5746 5743 5740 5737 5734 5731 5729 5726 5723 5719 5716 5712 5709 5705 5702 5699 5696 5693 5689 5686 5683 5681 5678 5676 5674 5671 5669 5667
5778 5777 5775 5774 5772 5770 5768 5765 5763 5760 5757 5754 5752 5749 5746 5743 5739 5736 5733 5730 5727 5725 5721 5718 5715 5711 5708 5705 5701 5698 5694 5691 5687 5684 5681 5678 5676 5673 5670 5668 5665 5663 5661
5774 5772 5771 5769 5768 5766 5764 5761 5759 5756 5754 5751 5748 5745 5742 5739 5736 5732 5729 5726 5723 5720 5717 5714 5711 5707 5704 5700 5697 5693 5690 5686 5683 5679 5676 5673 5671 5668 5665 5662 5660 5657 5655
5768 5767 5766 5765 5763 5761 5759 5757 5755 5752 5749 5747 5744 5741 5738 5735 5731 5728 5725 5722 5719 5716 5713 5709 5706 5702 5699 5695 5692 5689 5685 5682 5678 5675 5672 5669 5666 5663 5660 5657 5654 5652 5650
5763 5762 5760 5759 5758 5756 5754 5752 5750 5747 5744 5742 5739 5736 5733 5730 5726 5723 5720 5717 5714 5711 5707 5704 5701 5697 5694 5690 5687 5683 5680 5676 5673 5670 5667 5664 5661 5658 5655 5652 5649 5647 5644
5757 5756 5755 5754 5752 5751 5749 5747 5744 5742 5739 5736 5733 5731 5728 5724 5721 5718 5715 5712 5708 5705 5702 5699 5695 5692 5688 5685 5682 5678 5675 5671 5668 5665 5662 5659 5656 5652 5649 5646 5643 5641 5638
5750 5750 5749 5748 5747 5745 5743 5741 5739 5736 5734 5731 5728 5725 5722 5719 5715 5712 5709 5706 5703 5700 5697 5694 5690 5687 5683 5680 5676 5673 5669 5666 5663 5660 5656 5653 5650 5647 5644 5640 5637 5635 5632
5744 5743 5742 5742 5740 5739 5737 5735 5732 5730 5728 5725 5722 5719 5716 5713 5710 5707 5703 5700 5697 5693 5691 5687 5684 5681 5678 5675 5671 5668 5664 5661 5658 5654 5651 5648 5644 5641 5638 5634 5631 5628 5625
5737 5736 5736 5735 5734 5732 5730 5728 5726 5724 5721 5719 5716 5713 5710 5707 5704 5701 5697 5694 5690 5687 5684 5681 5678 5674 5671 5668 5665 5662 5659 5656 5652 5649 5646 5642 5638 5635 5632 5628 5625 5622 5619